Volver al catálogo

QIANFAN-89

ActivoComunicacionesPO
NORAD 63175·PAYLOAD·🇨🇳 China

Lanzado Mar 11, 2025 desde Wenchang Space Launch Site

Loading…

Próximos Pases (próximas 24 horas)

TLE

ActualizadoSource: Space-Track

Época: Sep 14, 2026, 12:56 UTC

1 63175U 25046S   26257.53917073  .00000080  00000-0  10536-3 0  9992
2 63175  88.9653 291.4083 0018138  53.8537 306.4290 13.51024756 84642

Sigue QIANFAN-89 en tiempo real con AllMySat

Download on the App Store